Погода в Погребище

Украина / Винницкая область     49˚29′13″N   29˚16′24″E
темп.,
°C
ветер,
м/с
пор.,
м/с
влажн.,
%
обл.,
%
осадки,
мм/ч
давл.,
гПа
погр.,
м
5 декабря, сб
сб523:00ююв6129361 0.0 1024460
02:00+1˚ююв5119379 0.0 1025469
05:00+1˚юв61095100 0.0 1025479
08:00+1˚юв61193100 0.0 1026511
11:00+2˚юв61091100 0.0 1027500
14:00+2˚юв699297 0.0 1027492
17:00+1˚юв61092100 0.0 1028471
20:00−1˚юв6118896 0.0 1029429
6 декабря, вс
вс623:00−1˚юв511872 0.0 1030402
02:00−2˚юв611861 0.0 1030397
05:00−2˚юв611800 0.0 1030413
08:00−3˚юв611720 0.0 1031398
11:00−2˚вюв610600 0.0 1032397
14:00вюв611520 0.0 1031453
17:00−3˚вюв612620 0.0 1031421
20:00−4˚вюв612630 0.0 1031441
7 декабря, пн
пн723:00−5˚вюв612680 0.0 1031443
02:00−5˚вюв611730 0.0 1031438
05:00−6˚вюв612720 0.0 1030442
08:00−7˚вюв612730 0.0 1030431
11:00−5˚вюв712670 0.0 1029518
14:00−4˚вюв8126813 0.0 1028626
17:00−5˚вюв7127877 0.0 1027544
20:00−3˚вюв7137286 0.0 1027624
8 декабря, вт
вт823:00−3˚вюв71362100 0.0 1026666
02:00−5˚вюв7126492 0.0 1026592
05:00−6˚вюв7127112 0.0 1025538
08:00−6˚вюв7127827 0.0 1025536
11:00−5˚вюв7117495 0.0 1025569
14:00−4˚вюв697497 0.0 1024628
17:00−4˚вюв5981100 0.0 1023503
20:00−3˚вюв61080100 0.0 1024432
9 декабря, ср
ср923:00−3˚вюв5984100 0.0 1023391
02:00−2˚в5992100 0.1 1023333
05:00−1˚в5995100 0.5 1022314
08:00−1˚в5996100 1.0 1022307
11:00вюв5996100 0.7 1023343
14:00+1˚вюв51095100 0.7 1022388
17:00+1˚вюв61294100 0.0 1022405
20:00+1˚юв61395100 0.0 1021393